Location: Nairn
(57.5833°N, 3.8667°W)
Time: 05:03:33
(UTC+00:00)

Tiros 1 - Pass Details

Date: 25 September 2022
Orbit: 629 x 662 km, 48.4° (Epoch: 09 December)

Event Time Altitude Azimuth Distance (km) Brightness Sun altitude
Exits shadow 04:56:05 11° 230° (SW) 2,002 9.1 -10.2°
Maximum altitude 04:59:51 27° 175° (S) 1,259 8.6 -9.7°
Drops below altitude 10° 05:03:46 10° 118° (ESE) 2,040 10.5 -9.2°
Sets 05:06:22 0° 106° (ESE) 2,943 11.7 -8.8°
